SCP
0 0 0 0 0 0 0 0 0 0 0 0 0 0 0 0 0 0 0 0 0 0 0 0 0 0 0 0 0 0 0 0 0 0 0 0 0 0 0 0 0 0 0
0 0 0 0 0 0 0 0 0 0 0 0 0 0 0 0 0 0 0 0 0 0 0 0 0 0 0 0 0 0 0 0 0 0 0 0 0 0 0 0 0 0 0
0 0 0 0 0 0 0 0 0 0 0 0 0 0 0 0 0 0 0 0 0 0 0 0 0 0 0 0 0 0 0 0 0 0 0 0 0 0 0 0 0 0 0
0 0 0 0 0 0 0 0 0 0 0 0 0 0 0 0 0 0 0 0 0 0 0 0 0 0 0 0 0 0 0 0 0 0 0 0 0 0 0 0 0 0 0
0 0 0 0 0 0 0 0 0 0 0 0 0 0 0 0 0 0 0 0 0 0 0 0 0 0 0 0 0 0 0 0 0 0 0 0 0 0 0 0 0 0 0
0 0 0 0 0 0 0 0 0 0 0 0 0 0 0 0 0 0 0 0 0 0 0 0 0 0 0 0 0 0 0 0 0 0 0 0 0 0 0 0 0 0 0
0 0 0 0 0 0 0 0 0 0 0 0 0 0 0 0 0 0 0 0 0 0 0 0 0 0 0 0 0 0 0 0 0 0 0 0 0 0 0 0 0 0 0
0 0 0 0 0 0 0 0 0 0 0 -0 0 0 0 0 0 0 0 0 0 0 0 0 0 0 0 0 0 0 0 0 0 0 0 1 1 0 0 0 0 0 0
0 0 0 0 0 0 0 0 0 0 0 0 0 0 0 0 0 0 0 0 0 0 0 0 0 0 0 0 0 0 0 0 0 0 0 1 1 1 1 1 1 0 0
0 0 0 0 0 0 0 0 0 0 0 0 0 0 0 0 0 0 0 0 0 0 0 0 0 0 0 0 0 0 0 0 0 0 0 1 1 1 1 1 1 1 1
0 0 0 0 0 0 0 0 0 0 0 0 0 0 0 0 0 0 0 0 0 0 0 0 0 0 0 0 0 0 0 0 0 0 0 0 0 1 1 1 1 1 1
0 0 0 0 0 0 0 0 0 0 0 0 0 0 0 0 0 0 0 0 0 0 0 0 0 0 0 0 0 0 0 0 0 0 0 0 0 0 0 1 1 1 1
0 0 0 0 0 0 0 0 0 0 0 0 0 0 0 0 0 0 0 0 0 0 0 0 0 0 0 0 0 0 0 0 0 0 0 0 0 0 0 0 0 1 1
0 0 0 0 0 0 0 0 0 0 0 0 0 0 0 0 0 0 0 0 0 0 0 0 0 0 0 0 0 0 0 0 0 0 0 0 0 0 0 0 0 0 0
0 0 0 0 0 0 0 0 0 0 0 0 0 0 0 0 0 0 0 0 0 0 0 0 0 0 0 0 0 0 0 0 0 0 0 0 0 0 0 0 0 0 0
0 0 0 0 0 0 0 0 0 0 0 0 0 0 0 0 0 0 0 0 0 0 0 0 0 0 0 0 0 0 0 0 0 0 0 0 0 0 0 0 0 0 0
0 0 0 0 0 0 0 0 0 0 0 0 0 0 0 0 0 0 0 0 0 0 0 0 0 0 0 0 0 0 0 0 0 0 0 0 0 0 0 0 0 0 0
0 0 0 0 0 0 0 0 0 0 0 0 0 0 0 0 0 0 0 0 0 0 0 0 0 0 0 0 0 0 0 0 0 0 0 0 0 0 0 0 0 0 0
1 0 0 0 0 0 0 0 0 0 0 0 0 0 0 0 0 0 0 0 0 0 0 0 0 0 0 0 0 0 0 0 0 0 0 0 0 0 0 0 0 0 0
1 1 1 0 0 0 0 0 0 0 0 0 0 0 0 0 0 0 0 0 0 0 0 0 0 0 0 0 0 0 0 0 0 0 0 0 0 0 0 0 0 0 0
1 1 1 1 0 0 0 0 0 0 0 0 0 0 0 0 0 0 0 0 0 0 0 0 0 0 0 0 0 0 0 0 0 0 0 0 0 0 0 0 0 0 0
1 1 1 1 0 0 0 0 0 0 0 1 1 1 0 0 0 0 0 0 0 0 0 0 0 0 0 0 0 0 0 0 0 0 0 0 0 0 0 0 0 0 0
1 1 1 1 1 0 0 0 0 0 0 1 1 1 1 0 0 0 0 0 0 0 0 0 0 0 0 0 0 0 0 0 0 0 0 0 0 0 0 0 0 0 0
1 1 1 1 1 1 0 0 0 0 0 1 1 1 1 1 0 0 0 0 0 0 0 0 0 0 0 0 0 0 0 0 0 0 0 0 0 0 0 0 0 0 0
1 1 1 1 1 1 0 0 0 0 0 0 1 1 1 1 0 0 0 0 0 0 0 0 0 0 0 0 0 0 0 0 0 0 0 0 0 0 0 0 0 0 0
1 1 1 1 1 1 0 0 0 0 0 0 1 1 1 0 0 0 0 0 1 0 0 0 0 0 0 0 0 0 0 0 0 0 0 0 0 0 0 0 0 0 0
Wind_Speed
2 1 1 2 3 1 2 3 3 3 4 5 5 5 5 5 5 5 4 8 6 7 8 10 11 12 11 11 12 12 12 12 11 10 10 10 10 10 9 8 8 8 8
2 2 0 1 2 2 2 2 2 2 3 2 3 3 4 4 4 4 4 7 8 6 7 8 10 11 11 12 12 12 12 12 12 11 11 11 11 10 10 9 9 9 8
3 2 1 1 2 1 0 1 1 2 2 3 3 3 3 3 3 4 5 4 6 9 8 8 9 10 11 12 12 12 12 12 12 12 12 11 11 11 10 10 10 9 9
3 2 2 2 2 1 1 0 2 1 1 2 2 2 2 3 3 4 4 5 4 5 9 10 9 9 11 12 13 12 12 12 12 13 13 13 12 12 12 11 11 10 10
3 2 3 3 1 1 1 2 1 2 1 2 2 2 2 2 2 4 4 5 5 5 5 9 10 10 11 13 13 13 13 13 13 13 14 14 14 14 13 13 12 11 11
2 2 2 3 2 2 1 2 1 2 3 3 4 1 2 2 3 2 4 4 4 6 7 6 7 10 13 12 12 12 13 14 14 14 15 15 15 14 14 14 14 13 13
3 2 2 2 2 3 3 2 2 1 1 2 4 4 3 3 1 2 2 3 2 3 4 5 6 5 7 13 12 12 13 15 15 14 15 15 15 15 15 15 15 15 14
2 2 2 1 2 2 2 2 2 2 1 1 4 3 4 5 3 1 1 1 1 1 2 3 3 4 6 5 8 12 12 13 15 15 15 14 15 15 15 16 16 16 16
3 1 1 2 1 1 3 2 2 2 1 1 2 4 4 1 3 4 1 1 0 1 0 0 2 2 4 5 4 8 8 9 11 14 14 14 15 15 16 16 17 17 17
5 4 3 2 0 1 2 0 3 2 3 0 2 1 3 5 4 2 5 3 2 0 2 2 1 1 2 3 2 2 2 4 7 10 12 13 13 14 15 16 17 18 18
6 5 4 3 2 1 1 2 1 2 1 2 1 0 0 1 4 4 1 1 3 2 0 1 1 1 1 1 1 4 2 1 3 6 8 9 11 12 14 16 17 18 19
6 7 6 5 5 2 2 2 1 1 1 2 3 1 2 2 2 3 4 4 3 2 2 2 2 1 1 2 4 7 3 2 3 4 5 7 8 9 12 14 16 18 19
5 7 7 6 5 4 4 3 3 1 2 1 2 2 2 2 3 3 5 4 4 3 3 5 3 2 2 2 2 6 0 2 3 3 4 6 7 8 9 11 13 15 16
5 6 7 7 7 6 6 5 4 4 3 4 4 3 3 3 3 4 4 5 6 5 4 4 2 4 2 3 3 6 2 2 3 4 5 5 6 7 8 9 10 12 13
5 7 8 8 8 8 7 6 5 5 4 6 5 6 6 3 4 4 4 5 6 7 5 3 4 2 3 4 2 6 6 0 3 5 5 6 6 7 8 9 9 10 10
7 7 8 9 9 9 9 8 7 7 7 6 5 5 6 6 4 5 5 5 6 7 7 4 3 5 4 6 4 6 8 5 9 8 6 6 7 8 8 9 9 10 10
9 9 9 9 9 9 9 9 9 7 8 8 8 8 8 8 6 6 6 6 6 7 8 8 6 5 6 8 7 7 8 8 8 10 7 6 7 8 9 9 10 10 11
10 10 10 10 10 10 10 10 11 10 10 10 10 9 10 8 9 8 7 8 7 7 9 10 8 7 8 8 8 9 9 9 9 6 8 8 9 9 10 10 10 11 11
10 10 10 10 10 10 10 11 11 11 11 11 10 10 10 10 10 9 9 9 8 8 8 9 10 7 7 7 8 9 11 8 10 9 10 12 12 11 10 10 11 11 12
11 11 11 11 11 11 11 11 11 11 11 11 11 11 11 12 12 11 10 10 10 10 9 10 10 9 8 8 8 9 9 8 9 9 8 8 9 11 12 12 12 12 12
11 10 11 11 11 11 11 12 11 12 12 12 12 13 13 13 12 10 10 10 10 10 10 10 10 9 9 7 8 8 9 8 8 8 9 9 9 10 11 14 16 14 12
9 9 10 11 11 10 8 9 11 12 12 13 13 13 13 14 15 16 15 14 13 13 13 11 10 11 10 10 8 8 9 9 9 7 8 9 9 9 9 10 8 10 10
8 9 10 10 11 11 8 10 12 12 13 13 13 13 12 12 14 15 17 20 19 20 18 15 15 14 12 10 10 11 11 11 10 8 7 10 9 10 10 9 7 8 10
6 7 8 10 10 10 8 10 11 13 15 15 15 15 14 14 14 14 14 15 16 17 18 18 17 16 15 12 11 12 12 12 12 11 11 12 11 11 10 9 10 13 13
5 6 6 8 9 9 6 8 9 10 12 16 16 15 16 16 15 14 15 16 16 15 16 17 17 16 13 10 9 10 11 12 12 11 10 11 11 11 10 10 10 14 15
4 6 6 7 8 8 6 7 8 9 11 12 12 13 15 17 15 14 16 16 17 17 16 14 16 17 17 17 16 16 14 13 12 12 10 10 10 10 11 10 10 8 10
Wind_Direction
9 353 346 328 294 288 222 224 232 216 223 222 228 217 228 244 257 249 154 155 186 203 209 206 204 203 204 204 201 198 197 194 189 185 184 184 182 182 182 180 177 173 173
35 354 354 336 324 315 336 287 246 221 226 224 232 228 235 230 226 239 236 170 184 201 211 211 208 206 207 209 208 205 205 204 197 193 191 190 188 189 191 189 187 185 181
45 357 28 324 6 351 296 255 238 229 220 211 215 221 229 237 218 220 238 230 192 190 202 209 208 208 209 213 215 213 211 209 203 199 198 196 194 193 194 195 194 192 187
37 352 23 41 359 312 290 215 267 244 233 246 219 238 212 207 216 223 228 227 237 214 190 194 204 209 212 216 219 219 217 213 207 204 204 202 201 199 198 198 199 196 193
47 21 39 38 312 348 338 319 31 305 271 285 243 214 240 229 221 225 241 238 232 247 234 175 195 208 212 218 220 221 221 219 213 210 210 208 207 205 204 202 201 200 199
61 17 85 43 353 40 31 29 14 348 307 292 281 262 257 257 249 241 251 235 229 234 236 224 206 204 208 216 218 221 223 222 219 216 215 214 213 211 209 207 205 204 203
98 11 53 76 360 49 15 2 328 174 285 316 264 229 207 221 250 238 265 284 246 245 244 228 236 235 202 202 211 219 224 225 222 219 218 217 217 215 213 211 210 208 207
156 136 43 65 60 77 61 29 354 327 31 336 295 261 213 176 197 186 202 209 327 264 232 219 235 230 251 226 191 205 220 226 225 221 219 218 219 217 216 215 214 212 211
179 126 127 39 47 349 77 30 355 346 355 70 350 309 291 251 151 157 151 121 78 338 262 250 242 243 242 245 228 191 209 223 230 228 223 221 221 220 218 217 217 216 215
196 183 178 157 254 49 91 183 56 347 309 325 116 3 349 355 302 176 185 165 138 1 14 319 320 178 257 251 216 71 167 230 236 234 231 228 225 221 220 220 220 220 219
202 199 193 187 194 195 83 36 64 341 331 335 350 334 172 222 271 289 243 211 212 203 269 275 334 345 336 303 277 57 44 296 261 247 240 237 233 227 224 224 226 226 224
199 197 200 200 208 198 167 183 186 170 358 2 324 315 287 281 278 283 277 256 260 236 271 285 263 283 318 311 50 33 13 350 305 276 257 247 242 237 232 231 231 232 231
200 189 201 201 208 200 201 202 211 249 209 229 267 288 303 302 310 297 292 291 287 264 233 242 227 251 265 310 59 3 129 28 332 299 278 262 251 244 240 237 235 234 235
218 183 197 203 207 205 208 205 226 211 217 237 253 281 276 266 279 279 288 296 284 269 228 235 260 243 263 280 35 305 255 87 349 314 291 275 263 255 249 244 243 241 240
210 195 203 206 207 207 213 212 233 228 222 236 233 217 246 254 252 266 270 277 288 293 285 205 240 225 255 281 316 288 290 49 312 295 286 280 272 263 257 250 247 246 244
209 204 208 210 210 208 210 219 227 219 230 235 251 265 259 263 254 256 259 260 264 277 286 292 262 268 295 298 252 277 278 256 245 245 256 272 274 269 262 256 250 247 245
204 208 211 212 213 212 211 215 234 226 229 236 236 236 238 258 262 258 250 252 255 259 267 275 273 262 259 273 283 280 273 269 256 209 221 254 266 266 262 258 254 250 246
210 210 212 214 217 217 215 217 226 229 230 235 237 238 240 237 236 254 258 255 254 258 263 272 277 271 253 255 262 268 270 265 270 217 210 241 255 257 255 254 253 251 251
214 215 213 217 221 223 221 223 227 231 232 235 237 237 239 241 240 242 243 251 252 246 247 261 266 267 265 259 261 259 260 260 268 253 220 226 235 242 247 248 247 247 248
215 216 218 222 224 226 227 227 228 231 235 237 238 239 239 238 238 240 241 243 251 257 253 255 262 262 257 252 252 261 261 245 249 263 262 253 232 228 237 239 238 239 242
218 219 223 226 228 230 230 229 232 234 236 239 239 239 239 238 240 240 246 244 241 244 251 252 257 260 258 254 254 257 263 266 256 255 261 258 245 239 230 227 228 230 233
226 225 227 231 232 236 223 219 236 247 244 244 245 243 242 231 230 228 239 249 253 250 251 256 259 259 261 260 259 264 269 266 265 253 251 259 260 260 257 255 227 202 220
232 233 236 237 240 242 221 213 222 245 252 251 249 247 247 243 230 233 226 228 237 243 247 253 259 261 262 256 258 258 254 262 269 277 267 265 262 260 258 257 217 214 232
247 245 246 247 249 247 220 217 221 238 252 254 251 247 247 251 245 239 241 236 235 232 229 232 244 252 256 260 256 256 266 264 260 253 252 261 263 263 261 260 226 216 230
268 264 261 261 260 261 232 219 222 250 251 253 253 251 248 249 244 232 241 247 248 246 237 230 234 242 250 254 252 254 251 251 254 251 235 243 256 262 263 261 248 218 223
291 285 281 275 271 271 256 228 223 258 262 262 258 255 249 247 249 227 236 244 248 248 250 238 225 233 240 239 227 236 246 249 253 255 245 239 250 259 264 258 254 239 225